Location: Drignac
(45.1667°N, 2.0333°E)
Time: 10:34:47
(UTC+00:00)

ATLAS 2AS CENTAUR R/B - Pass Details

Date: 29 March 2020
Orbit: 929 x 1283 km, 63.7° (Epoch: 21 May)

Event Time Altitude Azimuth Distance (km) Brightness Sun altitude
Rises 20:45:43 0° 321° (NW) 4,204 7.0 -25.2°
Reaches altitude 10° 20:48:44 10° 327° (NNW) 3,199 6.1 -25.7°
Maximum altitude 20:56:09 49° 41° (NE) 1,480 3.3 -26.7°
Enters shadow 20:57:40 43° 75° (ENE) 1,571 3.2 -26.9°
